📊 Raw Sensor Data

Showing records 49626 to 49650 of 85,122 total

ID Distance (ft) Battery V Battery A Int Temp (°F) Int Humid (%) Ext Temp (°F) Solar V RSSI SNR Time Stamp
35509 15.4 4.03 0 48 37 49 5.10 -81 9 03/20/2025 09:30 AM
35508 15.4 4.03 0 47 37 48 5.10 -81 7 03/20/2025 09:15 AM
35507 15.3 4.04 0 44 37 46 5.00 -83 7 03/20/2025 08:45 AM
35506 -- 4.08 0 42 37 43 4.50 -81 8 03/20/2025 08:30 AM
35505 -- 3.99 0 40 38 42 4.50 -81 8 03/20/2025 08:00 AM
35504 15.2 3.99 0 39 38 42 4.50 -82 8 03/20/2025 07:45 AM
35503 -- 4.02 0 38 38 39 4.50 -81 9 03/20/2025 07:30 AM
35502 -- 3.97 -5 38 39 39 0.90 -80 8 03/20/2025 07:00 AM
35501 -- 3.97 -5 37 39 38 0.00 -80 8 03/20/2025 06:45 AM
35500 -- 3.98 -35 37 39 39 0.00 -80 7 03/20/2025 06:30 AM
35499 -- 4.03 -5 37 39 39 0.00 -80 7 03/20/2025 06:15 AM
35498 -- 3.97 -5 38 40 38 0.00 -80 7 03/20/2025 06:00 AM
35497 15.3 3.98 -5 38 40 41 0.00 -81 8 03/20/2025 05:45 AM
35496 -- 3.98 -5 39 39 40 0.00 -80 8 03/20/2025 05:30 AM
35495 -- 4.03 -5 39 40 42 0.00 -80 7 03/20/2025 05:15 AM
35494 -- 4.03 -5 39 40 40 0.00 -80 8 03/20/2025 05:00 AM
35493 -- 3.98 -5 40 40 41 0.00 -79 8 03/20/2025 04:45 AM
35492 -- 3.98 -5 40 40 42 0.00 -81 8 03/20/2025 04:30 AM
35491 -- 3.98 -5 40 40 42 0.00 -81 8 03/20/2025 04:15 AM
35490 -- 4.04 -5 40 40 41 0.00 -81 7 03/20/2025 04:00 AM
35489 -- 3.98 -5 41 40 43 0.00 -81 8 03/20/2025 03:45 AM
35488 15.2 3.98 -5 42 40 43 0.00 -81 8 03/20/2025 03:30 AM
35487 15.2 3.99 -5 42 40 43 0.00 -81 8 03/20/2025 03:15 AM
35486 -- 4.04 -5 42 40 44 0.00 -79 8 03/20/2025 03:00 AM
35485 15.2 3.99 -5 42 40 44 0.00 -79 8 03/20/2025 02:45 AM